This demonstration page uses our WeatherBlox Daily Observations layout. Learn more.

Left ArrowRight Arrow

Hourly Observations for March 21, 2019

Temp ( °F °C ) Dew Point ( °F °C ) Humidity (%) Winds ( mph kmh ) Pressure ( in mb ) Visibility ( mi km ) Precip ( " mm )
12:57 am 00:57 Clear 35 1.7 31 -0.6 85 85 NNW 8 13 30.25 1025 10 16 0.00 0.00
1:57 am 01:57 Clear 33 0.6 30 -1.1 89 89 Calm 30.26 1025 10 16 0.00 0.00
2:57 am 02:57 Clear 30 -1.1 28 -2.2 92 92 NNW 6 9 30.26 1025 10 16 0.00 0.00
3:57 am 03:57 Clear 29 -1.7 27 -2.8 92 92 NW 8 13 30.26 1025 10 16 0.00 0.00
4:57 am 04:57 Clear 28 -2.2 26 -3.3 92 92 WNW 7 11 30.26 1025 10 16 0.00 0.00
5:57 am 05:57 Clear 28 -2.2 27 -2.8 96 96 NNW 6 9 30.26 1025 10 16 0.00 0.00
6:57 am 06:57 Clear 27 -2.8 25 -3.9 92 92 WNW 6 9 30.27 1025 10 16 0.00 0.00
7:57 am 07:57 Sunny 27 -2.8 26 -3.3 96 96 NW 7 11 30.29 1026 10 16 0.00 0.00
8:57 am 08:57 Sunny 34 1.1 31 -0.6 89 89 W 3 6 30.29 1026 10 16 0.00 0.00
9:57 am 09:57 Sunny 40 4.4 35 1.7 83 83 NW 7 11 30.28 1025 10 16 0.00 0.00
10:57 am 10:57 Sunny 43 6.1 33 0.6 68 68 WNW 5 7 30.29 1026 10 16 0.00 0.00
11:22 am 11:22 Mostly Sunny 45 7 34 1 66 66 VRB 5 7 30.29 1026 10 16 0.00 0.00
11:57 am 11:57 Sunny 46 7.8 36 2.2 68 68 WSW 6 9 30.27 1025 10 16 0.00 0.00
12:57 pm 12:57 Sunny 50 10 30 -1.1 46 46 VRB 5 7 30.25 1024 10 16 0.00 0.00
1:57 pm 13:57 Sunny 54 12.2 33 0.6 45 45 WNW 3 6 30.22 1024 10 16 0.00 0.00
2:57 pm 14:57 Sunny 56 13.3 34 1.1 44 44 WNW 8 13 30.20 1023 10 16 0.00 0.00
3:57 pm 15:57 Sunny 59 15 36 2.2 42 42 VRB 3 6 30.18 1022 10 16 0.00 0.00
4:57 pm 16:57 Sunny 60 15.6 36 2.2 41 41 SW 3 6 30.17 1022 10 16 0.00 0.00
5:57 pm 17:57 Sunny 61 16.1 35 1.7 38 38 VRB 5 7 30.15 1021 10 16 0.00 0.00
6:57 pm 18:57 Sunny 59 15 39 3.9 48 48 E 3 6 30.15 1021 10 16 0.00 0.00
8:57 pm 20:57 Clear 48 8.9 38 3.3 68 68 SSE 7 11 30.16 1022 10 16 0.00 0.03
9:57 pm 21:57 Clear 45 7.2 37 2.8 74 74 SSE 6 9 30.16 1021 10 16 0.00 0.00
10:57 pm 22:57 Clear 43 6.1 36 2.2 76 76 SSE 5 7 30.16 1022 10 16 0.00 0.00
11:57 pm 23:57 Hazy 43 6.1 35 1.7 74 74 Calm 30.17 1022 4 6 0.00 0.00

Powered by AerisWeather